Location: Chuathbaluk
(61.5726°N, 159.2454°W)
Time: 01:51:06
(UTC+00:00)

TIGRISAT - Pass Details

Date: 25 January 2021
Orbit: 605 x 688 km, 97.7° (Epoch: 05 March)

Event Time Altitude Azimuth Distance (km) Brightness Sun altitude
Rises 18:03:32 0° 191° (SSW) 2,879 ? -8.0°
Reaches altitude 10° 18:05:52 10° 202° (SSW) 1,988 ? -7.8°
Maximum altitude 18:09:47 32° 266° (W) 1,078 ? -7.4°
Drops below altitude 10° 18:13:48 10° 331° (NNW) 2,043 ? -6.9°
Sets 18:16:14 0° 341° (NNW) 2,972 ? -6.7°
